| time (UTC) | temp F | wind direction | speed MPH | gust MPH | rain 1hr in | rain 24hr in | rain mn in | humidity % | barometer mb |
| 20260904210019 | 65 | 323 | 2.0 | 8.0 | 0.00 | 0.04 | 0.01 | 63 | 1013.7 |
| 20260904205510 | 64 | 259 | 4.0 | 8.0 | 0.00 | 0.04 | 0.01 | 63 | 1013.6 |
| 20260904205010 | 65 | 304 | 2.0 | 8.0 | 0.00 | 0.04 | 0.01 | 63 | 1013.7 |
| 20260904204521 | 65 | 288 | 4.0 | 8.0 | 0.00 | 0.04 | 0.01 | 64 | 1013.7 |
| 20260904204012 | 65 | 295 | 1.0 | 6.0 | 0.00 | 0.04 | 0.01 | 66 | 1013.7 |
| 20260904203507 | 64 | 277 | 3.0 | 6.0 | 0.00 | 0.04 | 0.01 | 66 | 1013.8 |
| 20260904203006 | 65 | 320 | 3.0 | 6.0 | 0.00 | 0.04 | 0.01 | 65 | 1013.8 |
| 20260904202504 | 64 | 248 | 1.0 | 7.0 | 0.00 | 0.04 | 0.01 | 68 | 1013.9 |
| 20260904202006 | 64 | 274 | 3.0 | 7.0 | 0.00 | 0.04 | 0.01 | 68 | 1013.8 |
| 20260904201509 | 63 | 209 | 1.0 | 6.0 | 0.00 | 0.04 | 0.01 | 68 | 1013.9 |
| 20260904201011 | 63 | 283 | 2.0 | 6.0 | 0.00 | 0.04 | 0.01 | 68 | 1013.8 |
| 20260904200509 | 63 | 263 | 3.0 | 4.0 | 0.00 | 0.04 | 0.01 | 68 | 1014.0 |
| 20260904200018 | 63 | 267 | 2.0 | 6.0 | 0.00 | 0.04 | 0.01 | 69 | 1014.0 |
| 20260904195509 | 62 | 324 | 2.0 | 6.0 | 0.00 | 0.04 | 0.01 | 69 | 1014.0 |
| 20260904195009 | 63 | 286 | 3.0 | 7.0 | 0.00 | 0.04 | 0.01 | 69 | 1014.0 |
| 20260904194541 | 63 | 321 | 3.0 | 7.0 | 0.00 | 0.04 | 0.01 | 69 | 1013.9 |
| 20260904194012 | 63 | 268 | 3.0 | 7.0 | 0.00 | 0.04 | 0.01 | 70 | 1013.9 |
| 20260904193517 | 63 | 156 | 1.0 | 8.0 | 0.00 | 0.04 | 0.01 | 72 | 1013.8 |
| 20260904193027 | 63 | 288 | 3.0 | 8.0 | 0.00 | 0.04 | 0.01 | 72 | 1013.9 |
| 20260904192516 | 63 | 298 | 3.0 | 7.0 | 0.00 | 0.04 | 0.01 | 71 | 1013.9 |
| 20260904192005 | 63 | 290 | 2.0 | 7.0 | 0.00 | 0.04 | 0.01 | 75 | 1013.9 |
| 20260904191504 | 62 | 342 | 2.0 | 6.0 | 0.00 | 0.04 | 0.01 | 74 | 1014.0 |
| 20260904191005 | 62 | 325 | 1.0 | 7.0 | 0.00 | 0.04 | 0.01 | 76 | 1014.0 |
| 20260904190508 | 61 | 286 | 2.0 | 7.0 | 0.00 | 0.04 | 0.01 | 76 | 1014.0 |
| 20260904190008 | 62 | 271 | 3.0 | 6.0 | 0.00 | 0.04 | 0.01 | 74 | 1014.0 |
| 20260904185512 | 62 | 286 | 1.0 | 3.0 | 0.00 | 0.04 | 0.01 | 75 | 1014.0 |
| 20260904185011 | 62 | 288 | 1.0 | 6.0 | 0.00 | 0.04 | 0.01 | 78 | 1014.0 |
| 20260904184518 | 61 | 287 | 2.0 | 6.0 | 0.00 | 0.04 | 0.01 | 78 | 1014.1 |
| 20260904184012 | 62 | 301 | 2.0 | 4.0 | 0.00 | 0.04 | 0.01 | 77 | 1014.0 |
| 20260904183514 | 60 | 281 | 2.0 | 4.0 | 0.00 | 0.04 | 0.01 | 79 | 1014.0 |
| 20260904183023 | 60 | 337 | 2.0 | 3.0 | 0.00 | 0.04 | 0.01 | 78 | 1014.0 |
| 20260904182515 | 62 | 350 | 1.0 | 4.0 | 0.00 | 0.04 | 0.01 | 78 | 1014.0 |
| 20260904182016 | 61 | 5 | 2.0 | 4.0 | 0.00 | 0.04 | 0.01 | 77 | 1013.9 |
| 20260904181526 | 60 | 185 | 0.0 | 2.0 | 0.00 | 0.04 | 0.01 | 79 | 1013.9 |
| 20260904181017 | 60 | 292 | 1.0 | 3.0 | 0.00 | 0.04 | 0.01 | 79 | 1014.0 |
| 20260904180503 | 60 | 273 | 1.0 | 3.0 | 0.00 | 0.04 | 0.01 | 79 | 1014.0 |
| 20260904180007 | 60 | 288 | 1.0 | 3.0 | 0.00 | 0.04 | 0.01 | 80 | 1014.0 |
| 20260904175508 | 60 | 142 | 1.0 | 3.0 | 0.00 | 0.04 | 0.01 | 80 | 1014.0 |
| 20260904175008 | 59 | 239 | 1.0 | 4.0 | 0.00 | 0.04 | 0.01 | 83 | 1014.1 |
| 20260904174519 | 59 | 19 | 2.0 | 4.0 | 0.00 | 0.04 | 0.01 | 82 | 1014.1 |
| 20260904174010 | 59 | 229 | 2.0 | 4.0 | 0.00 | 0.04 | 0.01 | 83 | 1014.1 |
| 20260904173511 | 58 | 277 | 2.0 | 3.0 | 0.00 | 0.04 | 0.01 | 85 | 1014.1 |
| 20260904173018 | 57 | 284 | 2.0 | 3.0 | 0.00 | 0.04 | 0.01 | 86 | 1014.1 |
| 20260904172512 | 57 | 170 | 0.0 | 3.0 | 0.00 | 0.04 | 0.01 | 88 | 1014.1 |
| 20260904172014 | 57 | 277 | 1.0 | 2.0 | 0.00 | 0.04 | 0.01 | 87 | 1014.1 |
| 20260904171523 | 57 | 151 | 0.0 | 2.0 | 0.00 | 0.04 | 0.01 | 88 | 1014.1 |
| 20260904171015 | 56 | 287 | 0.0 | 3.0 | 0.00 | 0.04 | 0.01 | 88 | 1014.0 |
| 20260904170519 | 56 | 279 | 1.0 | 4.0 | 0.00 | 0.04 | 0.01 | 88 | 1014.1 |
| 20260904170031 | 56 | 261 | 1.0 | 4.0 | 0.00 | 0.04 | 0.01 | 87 | 1014.1 |
| 20260904165516 | 57 | 272 | 0.0 | 2.0 | 0.00 | 0.04 | 0.01 | 88 | 1014.1 |
| 20260904165008 | 57 | 269 | 0.0 | 2.0 | 0.00 | 0.04 | 0.01 | 88 | 1014.1 |
| 20260904164511 | 57 | 229 | 0.0 | 3.0 | 0.00 | 0.04 | 0.01 | 89 | 1013.9 |
| 20260904164007 | 57 | 293 | 2.0 | 4.0 | 0.00 | 0.04 | 0.01 | 88 | 1013.9 |
| 20260904163507 | 57 | 296 | 2.0 | 4.0 | 0.00 | 0.04 | 0.01 | 88 | 1014.0 |
| 20260904163014 | 57 | 295 | 1.0 | 3.0 | 0.00 | 0.04 | 0.01 | 87 | 1014.0 |
| 20260904162512 | 57 | 274 | 1.0 | 2.0 | 0.00 | 0.04 | 0.01 | 87 | 1013.9 |
| 20260904162011 | 58 | 307 | 1.0 | 2.0 | 0.00 | 0.04 | 0.01 | 85 | 1013.9 |
| 20260904161524 | 58 | 29 | 0.0 | 0.0 | 0.00 | 0.04 | 0.01 | 87 | 1013.9 |
| 20260904161014 | 57 | 24 | 0.0 | 0.0 | 0.00 | 0.04 | 0.01 | 86 | 1013.8 |
| 20260904160514 | 57 | 100 | 0.0 | 0.0 | 0.00 | 0.04 | 0.01 | 87 | 1013.7 |
| 20260904160029 | 57 | 75 | 0.0 | 0.0 | 0.00 | 0.04 | 0.01 | 87 | 1013.7 |
| 20260904155515 | 57 | 65 | 0.0 | 0.0 | 0.00 | 0.04 | 0.01 | 87 | 1013.7 |
| 20260904155015 | 56 | 342 | 0.0 | 0.0 | 0.00 | 0.04 | 0.01 | 88 | 1013.7 |
| 20260904154507 | 56 | 352 | 0.0 | 0.0 | 0.00 | 0.04 | 0.01 | 89 | 1013.6 |
| 20260904154007 | 56 | 352 | 0.0 | 0.0 | 0.00 | 0.04 | 0.01 | 88 | 1013.6 |
| 20260904153508 | 56 | 352 | 0.0 | 0.0 | 0.00 | 0.04 | 0.01 | 89 | 1013.5 |
| 20260904153018 | 56 | 352 | 0.0 | 0.0 | 0.00 | 0.04 | 0.01 | 91 | 1013.4 |
| 20260904152511 | 56 | 280 | 0.0 | 0.0 | 0.00 | 0.04 | 0.01 | 92 | 1013.4 |
| 20260904152011 | 55 | 280 | 0.0 | 0.0 | 0.00 | 0.04 | 0.01 | 93 | 1013.3 |
| 20260904151504 | 55 | 280 | 0.0 | 0.0 | 0.00 | 0.04 | 0.01 | 93 | 1013.2 |
| 20260904151001 | 54 | 280 | 0.0 | 0.0 | 0.00 | 0.04 | 0.01 | 93 | 1013.2 |
| 20260904150504 | 54 | 280 | 0.0 | 0.0 | 0.00 | 0.04 | 0.01 | 93 | 1013.1 |
| 20260904150009 | 54 | 280 | 0.0 | 0.0 | 0.00 | 0.04 | 0.01 | 93 | 1013.1 |
| 20260904145504 | 54 | 280 | 0.0 | 0.0 | 0.00 | 0.04 | 0.01 | 94 | 1013.0 |
| 20260904145005 | 54 | 280 | 0.0 | 0.0 | 0.00 | 0.04 | 0.01 | 93 | 1013.0 |
| 20260904144508 | 54 | 280 | 0.0 | 0.0 | 0.00 | 0.04 | 0.01 | 93 | 1013.0 |
| 20260904144009 | 53 | 280 | 0.0 | 0.0 | 0.00 | 0.04 | 0.01 | 93 | 1012.9 |
| 20260904143506 | 53 | 280 | 0.0 | 0.0 | 0.00 | 0.04 | 0.01 | 94 | 1012.9 |
| 20260904143011 | 53 | 280 | 0.0 | 0.0 | 0.00 | 0.04 | 0.01 | 94 | 1012.9 |
| 20260904142507 | 53 | 280 | 0.0 | 0.0 | 0.00 | 0.04 | 0.01 | 94 | 1012.9 |
| 20260904142010 | 53 | 280 | 0.0 | 0.0 | 0.00 | 0.04 | 0.01 | 94 | 1012.8 |
| 20260904141519 | 53 | 280 | 0.0 | 0.0 | 0.00 | 0.04 | 0.01 | 94 | 1012.8 |
| 20260904141012 | 53 | 280 | 0.0 | 0.0 | 0.00 | 0.05 | 0.01 | 94 | 1012.7 |
| 20260904140512 | 52 | 280 | 0.0 | 0.0 | 0.00 | 0.05 | 0.01 | 94 | 1012.6 |
| 20260904140004 | 52 | 280 | 0.0 | 0.0 | 0.00 | 0.05 | 0.01 | 94 | 1012.5 |
| 20260904135504 | 52 | 280 | 0.0 | 0.0 | 0.00 | 0.05 | 0.01 | 93 | 1012.4 |
| 20260904135007 | 52 | 280 | 0.0 | 0.0 | 0.00 | 0.05 | 0.01 | 94 | 1012.4 |
| 20260904134503 | 52 | 280 | 0.0 | 0.0 | 0.00 | 0.05 | 0.01 | 94 | 1012.3 |
| 20260904134007 | 52 | 280 | 0.0 | 0.0 | 0.00 | 0.05 | 0.01 | 94 | 1012.3 |
| 20260904133504 | 52 | 280 | 0.0 | 0.0 | 0.00 | 0.05 | 0.01 | 94 | 1012.2 |
| 20260904133008 | 52 | 280 | 0.0 | 0.0 | 0.00 | 0.06 | 0.01 | 93 | 1012.2 |
| 20260904132509 | 52 | 280 | 0.0 | 0.0 | 0.00 | 0.06 | 0.01 | 94 | 1012.2 |
| 20260904132008 | 52 | 280 | 0.0 | 0.0 | 0.00 | 0.06 | 0.01 | 93 | 1012.2 |
| 20260904131515 | 52 | 280 | 0.0 | 0.0 | 0.00 | 0.06 | 0.01 | 93 | 1012.1 |
| 20260904131011 | 52 | 280 | 0.0 | 0.0 | 0.00 | 0.06 | 0.01 | 93 | 1012.0 |
| 20260904130516 | 52 | 280 | 0.0 | 0.0 | 0.00 | 0.07 | 0.01 | 93 | 1012.0 |
| 20260904130023 | 52 | 280 | 0.0 | 0.0 | 0.00 | 0.07 | 0.01 | 93 | 1012.0 |
| 20260904125512 | 52 | 280 | 0.0 | 0.0 | 0.00 | 0.08 | 0.01 | 93 | 1011.9 |
| 20260904125017 | 52 | 280 | 0.0 | 0.0 | 0.00 | 0.08 | 0.01 | 93 | 1012.0 |
| 20260904124504 | 52 | 280 | 0.0 | 0.0 | 0.00 | 0.09 | 0.01 | 94 | 1012.0 |
| 20260904124004 | 52 | 279 | 0.0 | 0.0 | 0.00 | 0.09 | 0.01 | 93 | 1011.9 |
| 20260904123503 | 52 | 279 | 0.0 | 0.0 | 0.00 | 0.09 | 0.01 | 93 | 1011.8 |
| 20260904123006 | 52 | 279 | 0.0 | 0.0 | 0.00 | 0.09 | 0.01 | 93 | 1011.9 |
| 20260904122505 | 52 | 280 | 0.0 | 0.0 | 0.00 | 0.09 | 0.01 | 93 | 1011.7 |
| 20260904122008 | 52 | 279 | 0.0 | 0.0 | 0.00 | 0.10 | 0.01 | 93 | 1011.7 |
| 20260904121512 | 52 | 280 | 0.0 | 0.0 | 0.00 | 0.11 | 0.01 | 93 | 1011.7 |
| 20260904121008 | 52 | 280 | 0.0 | 0.0 | 0.00 | 0.12 | 0.01 | 93 | 1011.7 |
| 20260904120511 | 52 | 280 | 0.0 | 0.0 | 0.00 | 0.12 | 0.01 | 93 | 1011.7 |
| 20260904120025 | 52 | 280 | 0.0 | 0.0 | 0.00 | 0.14 | 0.01 | 93 | 1011.7 |
| 20260904115511 | 52 | 280 | 0.0 | 0.0 | 0.00 | 0.14 | 0.01 | 93 | 1011.5 |
| 20260904115010 | 52 | 280 | 0.0 | 0.0 | 0.00 | 0.14 | 0.01 | 93 | 1011.5 |
| 20260904114526 | 52 | 279 | 0.0 | 0.0 | 0.00 | 0.14 | 0.01 | 93 | 1011.5 |
| 20260904114013 | 52 | 279 | 0.0 | 0.0 | 0.00 | 0.14 | 0.01 | 93 | 1011.5 |
| 20260904113514 | 52 | 280 | 0.0 | 0.0 | 0.00 | 0.14 | 0.01 | 93 | 1011.5 |
| 20260904113013 | 52 | 280 | 0.0 | 0.0 | 0.00 | 0.14 | 0.01 | 93 | 1011.5 |
| 20260904112504 | 52 | 280 | 0.0 | 0.0 | 0.00 | 0.14 | 0.01 | 93 | 1011.4 |
| 20260904112004 | 52 | 279 | 0.0 | 0.0 | 0.00 | 0.14 | 0.01 | 93 | 1011.4 |
| 20260904111507 | 52 | 280 | 0.0 | 0.0 | 0.00 | 0.14 | 0.01 | 93 | 1011.5 |
| 20260904111010 | 52 | 280 | 0.0 | 0.0 | 0.00 | 0.14 | 0.01 | 93 | 1011.5 |
| 20260904110508 | 53 | 279 | 0.0 | 0.0 | 0.00 | 0.14 | 0.01 | 93 | 1011.4 |
| 20260904110030 | 52 | 280 | 0.0 | 0.0 | 0.00 | 0.14 | 0.01 | 93 | 1011.3 |
| 20260904105512 | 53 | 279 | 0.0 | 0.0 | 0.00 | 0.14 | 0.01 | 93 | 1011.3 |
| 20260904105012 | 53 | 279 | 0.0 | 0.0 | 0.00 | 0.14 | 0.01 | 93 | 1011.2 |
| 20260904104523 | 53 | 280 | 0.0 | 0.0 | 0.00 | 0.14 | 0.01 | 93 | 1011.3 |
| 20260904104012 | 53 | 279 | 0.0 | 0.0 | 0.00 | 0.14 | 0.01 | 93 | 1011.3 |
| 20260904103513 | 53 | 280 | 0.0 | 0.0 | 0.00 | 0.14 | 0.01 | 93 | 1011.2 |
| 20260904103027 | 53 | 279 | 0.0 | 0.0 | 0.00 | 0.14 | 0.01 | 93 | 1011.3 |
| 20260904102516 | 53 | 279 | 0.0 | 0.0 | 0.00 | 0.14 | 0.01 | 92 | 1011.2 |
| 20260904102014 | 53 | 279 | 0.0 | 0.0 | 0.00 | 0.14 | 0.01 | 92 | 1011.2 |
| 20260904101508 | 53 | 279 | 0.0 | 0.0 | 0.00 | 0.14 | 0.01 | 92 | 1011.2 |
| 20260904101007 | 53 | 301 | 0.0 | 0.0 | 0.00 | 0.14 | 0.01 | 92 | 1011.1 |
| 20260904100510 | 53 | 315 | 0.0 | 0.0 | 0.00 | 0.14 | 0.01 | 92 | 1011.1 |
| 20260904100012 | 53 | 315 | 0.0 | 0.0 | 0.00 | 0.14 | 0.01 | 93 | 1011.1 |
| 20260904095508 | 53 | 315 | 0.0 | 0.0 | 0.00 | 0.14 | 0.01 | 92 | 1011.1 |
| 20260904095010 | 53 | 315 | 0.0 | 0.0 | 0.00 | 0.14 | 0.01 | 93 | 1011.1 |
| 20260904094520 | 53 | 316 | 0.0 | 0.0 | 0.00 | 0.14 | 0.01 | 93 | 1011.1 |
| 20260904094012 | 53 | 315 | 0.0 | 0.0 | 0.00 | 0.14 | 0.01 | 93 | 1011.1 |
| 20260904093514 | 53 | 316 | 0.0 | 0.0 | 0.00 | 0.14 | 0.01 | 93 | 1011.1 |
| 20260904093025 | 53 | 315 | 0.0 | 0.0 | 0.00 | 0.14 | 0.01 | 92 | 1011.1 |
| 20260904092515 | 53 | 315 | 0.0 | 0.0 | 0.00 | 0.14 | 0.01 | 92 | 1011.1 |
| 20260904092014 | 53 | 315 | 0.0 | 0.0 | 0.00 | 0.14 | 0.01 | 92 | 1011.1 |
| 20260904091531 | 53 | 315 | 0.0 | 0.0 | 0.00 | 0.14 | 0.01 | 92 | 1011.1 |
| 20260904091016 | 53 | 315 | 0.0 | 0.0 | 0.00 | 0.14 | 0.01 | 92 | 1011.1 |
| 20260904090516 | 53 | 315 | 0.0 | 0.0 | 0.00 | 0.14 | 0.01 | 92 | 1011.1 |
| 20260904090031 | 53 | 257 | 0.0 | 0.0 | 0.00 | 0.14 | 0.01 | 92 | 1011.2 |
| 20260904085506 | 53 | 257 | 0.0 | 0.0 | 0.00 | 0.14 | 0.01 | 92 | 1011.1 |
| 20260904085011 | 53 | 257 | 0.0 | 0.0 | 0.00 | 0.14 | 0.01 | 92 | 1011.1 |
| 20260904084519 | 53 | 261 | 0.0 | 0.0 | 0.00 | 0.14 | 0.01 | 92 | 1011.1 |
| 20260904084011 | 53 | 261 | 0.0 | 0.0 | 0.01 | 0.14 | 0.01 | 92 | 1011.1 |
| 20260904083511 | 53 | 261 | 0.0 | 0.0 | 0.01 | 0.14 | 0.01 | 92 | 1011.1 |
| 20260904083024 | 53 | 261 | 0.0 | 0.0 | 0.01 | 0.14 | 0.01 | 92 | 1011.0 |
| 20260904082517 | 53 | 261 | 0.0 | 0.0 | 0.01 | 0.14 | 0.01 | 92 | 1011.0 |
| 20260904082015 | 53 | 261 | 0.0 | 0.0 | 0.01 | 0.14 | 0.01 | 91 | 1011.0 |
| 20260904081527 | 54 | 261 | 0.0 | 0.0 | 0.01 | 0.14 | 0.01 | 91 | 1011.0 |
| 20260904081016 | 54 | 246 | 0.0 | 0.0 | 0.01 | 0.14 | 0.01 | 91 | 1011.0 |
| 20260904080519 | 54 | 101 | 0.0 | 0.0 | 0.01 | 0.14 | 0.01 | 91 | 1011.1 |
| 20260904080033 | 54 | 101 | 0.0 | 0.0 | 0.01 | 0.14 | 0.01 | 91 | 1011.1 |
| 20260904075515 | 54 | 101 | 0.0 | 0.0 | 0.02 | 0.14 | 0.01 | 90 | 1011.1 |
| 20260904075021 | 54 | 101 | 0.0 | 0.0 | 0.02 | 0.14 | 0.01 | 90 | 1011.2 |
| 20260904074538 | 55 | 101 | 0.0 | 0.0 | 0.02 | 0.14 | 0.01 | 90 | 1011.2 |
| 20260904074010 | 55 | 101 | 0.0 | 2.0 | 0.01 | 0.13 | 0.00 | 90 | 1011.3 |
| 20260904073513 | 55 | 98 | 0.0 | 2.0 | 0.01 | 0.13 | 0.00 | 90 | 1011.3 |
| 20260904073020 | 55 | 128 | 0.0 | 1.0 | 0.01 | 0.13 | 0.00 | 90 | 1011.3 |
| 20260904072512 | 55 | 107 | 0.0 | 0.0 | 0.01 | 0.13 | 0.00 | 90 | 1011.3 |
| 20260904072012 | 55 | 107 | 0.0 | 0.0 | 0.01 | 0.13 | 0.00 | 89 | 1011.3 |
| 20260904071527 | 55 | 107 | 0.0 | 0.0 | 0.01 | 0.13 | 0.00 | 89 | 1011.3 |
| 20260904071012 | 55 | 107 | 0.0 | 2.0 | 0.01 | 0.13 | 0.00 | 88 | 1011.2 |
| 20260904070518 | 55 | 108 | 0.0 | 2.0 | 0.01 | 0.13 | 0.00 | 88 | 1011.3 |
| 20260904070042 | 56 | 115 | 0.0 | 2.0 | 0.01 | 0.13 | 0.00 | 88 | 1011.3 |
| 20260904065516 | 56 | 118 | 1.0 | 2.0 | 0.00 | 0.12 | 0.12 | 87 | 1011.3 |
| 20260904065016 | 56 | 122 | 0.0 | 2.0 | 0.00 | 0.12 | 0.12 | 87 | 1011.3 |
| 20260904064538 | 56 | 131 | 0.0 | 3.0 | 0.00 | 0.12 | 0.12 | 87 | 1011.3 |
| 20260904064018 | 56 | 107 | 1.0 | 3.0 | 0.00 | 0.12 | 0.12 | 87 | 1011.3 |
| 20260904063519 | 56 | 130 | 0.0 | 3.0 | 0.00 | 0.12 | 0.12 | 87 | 1011.3 |
| 20260904063033 | 56 | 83 | 1.0 | 3.0 | 0.00 | 0.12 | 0.12 | 87 | 1011.3 |
| 20260904062512 | 56 | 99 | 0.0 | 2.0 | 0.00 | 0.12 | 0.12 | 87 | 1011.3 |
| 20260904062013 | 56 | 103 | 1.0 | 2.0 | 0.00 | 0.12 | 0.12 | 87 | 1011.2 |
| 20260904061524 | 56 | 121 | 0.0 | 3.0 | 0.00 | 0.12 | 0.12 | 86 | 1011.2 |
| 20260904061015 | 56 | 74 | 1.0 | 3.0 | 0.00 | 0.12 | 0.12 | 86 | 1011.2 |
| 20260904060514 | 56 | 105 | 0.0 | 2.0 | 0.00 | 0.12 | 0.12 | 87 | 1011.1 |
| 20260904060034 | 56 | 98 | 0.0 | 0.0 | 0.00 | 0.12 | 0.12 | 89 | 1011.1 |
| 20260904055515 | 56 | 98 | 0.0 | 0.0 | 0.00 | 0.12 | 0.12 | 89 | 1011.0 |
| 20260904055016 | 56 | 98 | 0.0 | 0.0 | 0.00 | 0.12 | 0.12 | 89 | 1011.0 |
| 20260904054533 | 56 | 98 | 0.0 | 0.0 | 0.00 | 0.12 | 0.12 | 88 | 1011.0 |
| 20260904054019 | 55 | 98 | 0.0 | 0.0 | 0.00 | 0.12 | 0.12 | 88 | 1010.9 |
| 20260904053516 | 55 | 98 | 0.0 | 0.0 | 0.00 | 0.12 | 0.12 | 88 | 1011.0 |
| 20260904053034 | 56 | 98 | 0.0 | 0.0 | 0.00 | 0.12 | 0.12 | 88 | 1011.0 |
| 20260904052519 | 56 | 98 | 0.0 | 0.0 | 0.00 | 0.12 | 0.12 | 88 | 1011.0 |
| 20260904052019 | 56 | 98 | 0.0 | 0.0 | 0.00 | 0.12 | 0.12 | 88 | 1011.0 |
| 20260904051532 | 56 | 98 | 0.0 | 0.0 | 0.00 | 0.12 | 0.12 | 88 | 1011.0 |
| 20260904051015 | 56 | 98 | 0.0 | 0.0 | 0.00 | 0.12 | 0.12 | 89 | 1011.1 |
| 20260904050514 | 56 | 98 | 0.0 | 0.0 | 0.00 | 0.12 | 0.12 | 89 | 1011.0 |
| 20260904050028 | 56 | 98 | 0.0 | 0.0 | 0.00 | 0.12 | 0.12 | 89 | 1011.0 |
| 20260904045504 | 56 | 98 | 0.0 | 0.0 | 0.00 | 0.12 | 0.12 | 89 | 1011.0 |
| 20260904045004 | 56 | 98 | 0.0 | 0.0 | 0.00 | 0.12 | 0.12 | 89 | 1011.0 |
| 20260904044507 | 56 | 98 | 0.0 | 0.0 | 0.00 | 0.12 | 0.12 | 89 | 1011.1 |
| 20260904044004 | 56 | 98 | 0.0 | 0.0 | 0.00 | 0.12 | 0.12 | 89 | 1011.0 |
| 20260904043506 | 56 | 98 | 0.0 | 0.0 | 0.00 | 0.12 | 0.12 | 88 | 1011.0 |
| 20260904043015 | 56 | 98 | 0.0 | 0.0 | 0.00 | 0.12 | 0.12 | 88 | 1011.0 |
| 20260904042509 | 56 | 98 | 0.0 | 0.0 | 0.00 | 0.12 | 0.12 | 89 | 1011.0 |
| 20260904042009 | 56 | 98 | 0.0 | 0.0 | 0.00 | 0.12 | 0.12 | 88 | 1011.0 |
| 20260904041516 | 56 | 98 | 0.0 | 0.0 | 0.00 | 0.12 | 0.12 | 88 | 1010.9 |
| 20260904041010 | 56 | 98 | 0.0 | 0.0 | 0.00 | 0.12 | 0.12 | 89 | 1010.9 |
| 20260904040513 | 56 | 98 | 0.0 | 0.0 | 0.00 | 0.12 | 0.12 | 88 | 1011.0 |
| 20260904040023 | 56 | 98 | 0.0 | 0.0 | 0.00 | 0.12 | 0.12 | 88 | 1011.0 |
| 20260904035516 | 56 | 98 | 0.0 | 0.0 | 0.00 | 0.12 | 0.12 | 88 | 1010.9 |
| 20260904035014 | 56 | 98 | 0.0 | 0.0 | 0.00 | 0.12 | 0.12 | 88 | 1010.9 |
| 20260904034543 | 56 | 98 | 0.0 | 0.0 | 0.00 | 0.12 | 0.12 | 88 | 1010.9 |
| 20260904034019 | 56 | 98 | 0.0 | 0.0 | 0.00 | 0.12 | 0.12 | 88 | 1010.8 |
| 20260904033507 | 56 | 98 | 0.0 | 0.0 | 0.00 | 0.12 | 0.12 | 88 | 1010.8 |
| 20260904033007 | 56 | 98 | 0.0 | 0.0 | 0.00 | 0.12 | 0.12 | 88 | 1010.6 |
| 20260904032507 | 56 | 98 | 0.0 | 0.0 | 0.00 | 0.12 | 0.12 | 87 | 1010.6 |
| 20260904032008 | 56 | 98 | 0.0 | 0.0 | 0.00 | 0.12 | 0.12 | 88 | 1010.4 |
| 20260904031515 | 56 | 98 | 0.0 | 0.0 | 0.00 | 0.12 | 0.12 | 88 | 1010.5 |
| 20260904031011 | 56 | 98 | 0.0 | 0.0 | 0.01 | 0.12 | 0.12 | 87 | 1010.4 |
| 20260904030510 | 56 | 98 | 0.0 | 0.0 | 0.01 | 0.12 | 0.12 | 87 | 1010.3 |
| 20260904030021 | 56 | 98 | 0.0 | 0.0 | 0.01 | 0.12 | 0.12 | 87 | 1010.4 |
| 20260904025511 | 57 | 98 | 0.0 | 0.0 | 0.01 | 0.12 | 0.12 | 86 | 1010.4 |
| 20260904025012 | 57 | 98 | 0.0 | 0.0 | 0.02 | 0.12 | 0.12 | 85 | 1010.4 |
| 20260904024528 | 57 | 98 | 0.0 | 0.0 | 0.02 | 0.12 | 0.12 | 86 | 1010.4 |
| 20260904024014 | 57 | 98 | 0.0 | 0.0 | 0.02 | 0.12 | 0.12 | 87 | 1010.5 |
| 20260904023515 | 58 | 98 | 0.0 | 0.0 | 0.02 | 0.12 | 0.12 | 86 | 1010.5 |
| 20260904023030 | 58 | 98 | 0.0 | 0.0 | 0.02 | 0.12 | 0.12 | 85 | 1010.5 |
| 20260904022524 | 58 | 98 | 0.0 | 2.0 | 0.02 | 0.12 | 0.12 | 85 | 1010.4 |
| 20260904022010 | 58 | 98 | 0.0 | 2.0 | 0.02 | 0.12 | 0.12 | 86 | 1010.4 |
| 20260904021510 | 58 | 98 | 0.0 | 2.0 | 0.02 | 0.12 | 0.12 | 85 | 1010.4 |
| 20260904021007 | 58 | 98 | 0.0 | 4.0 | 0.01 | 0.11 | 0.11 | 85 | 1010.4 |
| 20260904020507 | 58 | 105 | 1.0 | 6.0 | 0.01 | 0.11 | 0.11 | 84 | 1010.4 |
| 20260904020019 | 59 | 114 | 2.0 | 6.0 | 0.01 | 0.11 | 0.11 | 83 | 1010.3 |
| 20260904015513 | 59 | 113 | 2.0 | 3.0 | 0.01 | 0.11 | 0.11 | 82 | 1010.3 |
| 20260904015012 | 59 | 101 | 1.0 | 3.0 | 0.00 | 0.10 | 0.10 | 81 | 1010.2 |
| 20260904014524 | 60 | 105 | 2.0 | 6.0 | 0.00 | 0.10 | 0.10 | 79 | 1010.2 |
| 20260904014012 | 60 | 108 | 2.0 | 6.0 | 0.00 | 0.10 | 0.10 | 78 | 1010.3 |
| 20260904013516 | 61 | 19 | 2.0 | 6.0 | 0.00 | 0.10 | 0.10 | 74 | 1010.3 |
| 20260904013030 | 62 | 121 | 1.0 | 2.0 | 0.00 | 0.10 | 0.10 | 71 | 1010.3 |
| 20260904012517 | 62 | 261 | 0.0 | 2.0 | 0.00 | 0.10 | 0.10 | 70 | 1010.3 |
| 20260904012016 | 63 | 284 | 0.0 | 3.0 | 0.00 | 0.10 | 0.10 | 67 | 1010.3 |
| 20260904011556 | 63 | 286 | 0.0 | 3.0 | 0.00 | 0.10 | 0.10 | 66 | 1010.3 |
| 20260904011019 | 63 | 260 | 1.0 | 6.0 | 0.00 | 0.10 | 0.10 | 64 | 1010.3 |
| 20260904010508 | 64 | 284 | 2.0 | 6.0 | 0.00 | 0.11 | 0.10 | 63 | 1010.2 |
| 20260904010013 | 64 | 317 | 2.0 | 5.0 | 0.00 | 0.12 | 0.10 | 61 | 1010.2 |
| 20260904005515 | 64 | 150 | 1.0 | 5.0 | 0.00 | 0.12 | 0.10 | 63 | 1010.2 |
| 20260904005012 | 65 | 182 | 1.0 | 4.0 | 0.00 | 0.12 | 0.10 | 63 | 1010.2 |
| 20260904004518 | 65 | 326 | 1.0 | 4.0 | 0.00 | 0.12 | 0.10 | 63 | 1010.1 |
| 20260904004017 | 65 | 215 | 1.0 | 4.0 | 0.00 | 0.12 | 0.10 | 63 | 1010.1 |
| 20260904003521 | 65 | 180 | 0.0 | 9.0 | 0.00 | 0.13 | 0.10 | 64 | 1010.0 |
| 20260904003026 | 65 | 284 | 1.0 | 9.0 | 0.00 | 0.13 | 0.10 | 63 | 1009.9 |
| 20260904002516 | 66 | 88 | 2.0 | 8.0 | 0.00 | 0.13 | 0.10 | 62 | 1009.9 |
| 20260904002017 | 66 | 236 | 2.0 | 8.0 | 0.00 | 0.14 | 0.10 | 61 | 1009.9 |
| 20260904001530 | 66 | 28 | 1.0 | 7.0 | 0.00 | 0.16 | 0.10 | 59 | 1010.0 |
| 20260904001017 | 66 | 234 | 1.0 | 3.0 | 0.00 | 0.18 | 0.10 | 58 | 1009.9 |
| 20260904000518 | 66 | 205 | 1.0 | 4.0 | 0.00 | 0.18 | 0.10 | 57 | 1009.9 |
| 20260904000040 | 66 | 200 | 1.0 | 4.0 | 0.00 | 0.18 | 0.10 | 58 | 1009.8 |
| 20260903235517 | 66 | 271 | 1.0 | 3.0 | 0.00 | 0.18 | 0.10 | 55 | 1009.7 |
| 20260903235010 | 66 | 259 | 1.0 | 4.0 | 0.00 | 0.18 | 0.10 | 56 | 1009.7 |
| 20260903234526 | 67 | 5 | 2.0 | 4.0 | 0.00 | 0.18 | 0.10 | 55 | 1009.7 |
| 20260903234009 | 67 | 273 | 1.0 | 5.0 | 0.00 | 0.18 | 0.10 | 56 | 1009.7 |
| 20260903233509 | 66 | 261 | 2.0 | 5.0 | 0.00 | 0.18 | 0.10 | 55 | 1009.7 |
| 20260903233024 | 67 | 192 | 2.0 | 7.0 | 0.00 | 0.18 | 0.10 | 54 | 1009.7 |
| 20260903232515 | 66 | 278 | 3.0 | 7.0 | 0.00 | 0.18 | 0.10 | 56 | 1009.7 |
| 20260903232016 | 66 | 311 | 3.0 | 7.0 | 0.00 | 0.18 | 0.10 | 55 | 1009.7 |
| 20260903231527 | 66 | 11 | 2.0 | 6.0 | 0.00 | 0.18 | 0.10 | 55 | 1009.7 |
| 20260903231016 | 66 | 245 | 2.0 | 7.0 | 0.00 | 0.18 | 0.10 | 56 | 1009.7 |
| 20260903230515 | 66 | 337 | 3.0 | 7.0 | 0.00 | 0.19 | 0.10 | 57 | 1009.7 |
| 20260903230040 | 66 | 264 | 3.0 | 7.0 | 0.00 | 0.19 | 0.10 | 57 | 1009.7 |
| 20260903225519 | 66 | 311 | 4.0 | 7.0 | 0.00 | 0.20 | 0.10 | 55 | 1009.8 |
| 20260903225019 | 66 | 13 | 3.0 | 5.0 | 0.00 | 0.20 | 0.10 | 57 | 1009.8 |
| 20260903224532 | 65 | 260 | 2.0 | 5.0 | 0.00 | 0.21 | 0.10 | 58 | 1009.9 |
| 20260903224019 | 65 | 360 | 2.0 | 6.0 | 0.00 | 0.22 | 0.10 | 58 | 1009.9 |
| 20260903223510 | 64 | 325 | 2.0 | 6.0 | 0.00 | 0.23 | 0.10 | 60 | 1009.9 |
| 20260903223019 | 64 | 319 | 1.0 | 4.0 | 0.00 | 0.23 | 0.10 | 58 | 1010.0 |
| 20260903222512 | 64 | 277 | 1.0 | 4.0 | 0.00 | 0.24 | 0.10 | 61 | 1010.0 |
| 20260903222014 | 64 | 280 | 2.0 | 5.0 | 0.00 | 0.24 | 0.10 | 60 | 1010.0 |
| 20260903221527 | 65 | 266 | 2.0 | 7.0 | 0.00 | 0.24 | 0.10 | 60 | 1010.1 |
| 20260903221014 | 64 | 313 | 3.0 | 7.0 | 0.00 | 0.25 | 0.10 | 62 | 1010.0 |
| 20260903220516 | 64 | 288 | 2.0 | 6.0 | 0.00 | 0.25 | 0.10 | 62 | 1010.0 |
| 20260903220028 | 64 | 313 | 2.0 | 6.0 | 0.00 | 0.26 | 0.10 | 62 | 1010.1 |
| 20260903215519 | 64 | 304 | 0.0 | 4.0 | 0.00 | 0.26 | 0.10 | 62 | 1010.1 |
| 20260903215018 | 64 | 270 | 2.0 | 4.0 | 0.00 | 0.27 | 0.10 | 65 | 1010.1 |
| 20260903214535 | 63 | 280 | 1.0 | 6.0 | 0.00 | 0.27 | 0.10 | 66 | 1010.0 |
| 20260903214019 | 63 | 295 | 3.0 | 6.0 | 0.00 | 0.28 | 0.10 | 66 | 1010.1 |
| 20260903213518 | 63 | 286 | 2.0 | 6.0 | 0.00 | 0.28 | 0.10 | 66 | 1010.2 |
| 20260903213037 | 63 | 261 | 2.0 | 6.0 | 0.00 | 0.29 | 0.10 | 67 | 1010.1 |
| 20260903212501 | 63 | 283 | 1.0 | 3.0 | 0.00 | 0.30 | 0.10 | 67 | 1010.1 |
| 20260903212002 | 62 | 287 | 2.0 | 7.0 | 0.00 | 0.30 | 0.10 | 68 | 1010.1 |
| 20260903211501 | 63 | 290 | 1.0 | 7.0 | 0.00 | 0.30 | 0.10 | 68 | 1010.1 |
| 20260903211001 | 63 | 263 | 1.0 | 4.0 | 0.00 | 0.31 | 0.10 | 67 | 1010.0 |
| 20260903210505 | 63 | 247 | 1.0 | 4.0 | 0.00 | 0.31 | 0.10 | 65 | 1010.0 |